Time,TemperatureF,DewpointF,PressureIn,WindDirection,WindDirectionDegrees,WindSpeedMPH,WindSpeedGustMPH,Humidity,HourlyPrecipIn,Conditions,Clouds,dailyrainin,SoftwareType,DateUTC
2013-01-12 00:03:00,42.0,36.3,30.16,NNE,22,0.0,6.0,80,0.00,,,0.00,Weather View 32 v70,2013-01-12 08:03:00,
2013-01-12 00:08:00,42.0,36.3,30.16,NNE,22,2.0,6.0,80,0.00,,,0.00,Weather View 32 v70,2013-01-12 08:08:00,
2013-01-12 00:13:00,42.0,36.3,30.16,NNE,22,0.0,6.0,80,0.00,,,0.00,Weather View 32 v70,2013-01-12 08:13:00,
2013-01-12 00:18:00,42.0,36.3,30.16,NNE,22,0.0,6.0,80,0.00,,,0.00,Weather View 32 v70,2013-01-12 08:18:00,
2013-01-12 00:23:00,42.0,37.2,30.16,NNE,22,0.0,6.0,83,0.00,,,0.00,Weather View 32 v70,2013-01-12 08:23:00,
2013-01-12 00:28:00,41.0,35.3,30.16,NNE,22,0.0,6.0,80,0.00,,,0.00,Weather View 32 v70,2013-01-12 08:28:00,
2013-01-12 00:33:00,41.0,35.3,30.17,NNE,22,0.0,6.0,80,0.00,,,0.00,Weather View 32 v70,2013-01-12 08:33:00,
2013-01-12 00:38:00,41.0,35.3,30.17,NNE,22,0.0,6.0,80,0.00,,,0.00,Weather View 32 v70,2013-01-12 08:38:00,
2013-01-12 00:48:00,41.0,35.3,30.17,NNE,22,0.0,6.0,80,0.00,,,0.00,Weather View 32 v70,2013-01-12 08:48:00,
2013-01-12 00:53:00,41.0,35.3,30.17,NNE,22,0.0,5.0,80,0.00,,,0.00,Weather View 32 v70,2013-01-12 08:53:00,
2013-01-12 00:58:00,41.0,36.5,30.16,ENE,67,0.0,5.0,84,0.00,,,0.00,Weather View 32 v70,2013-01-12 08:58:00,
2013-01-12 01:03:00,41.0,35.3,30.16,ENE,67,0.0,4.0,80,0.00,,,0.00,Weather View 32 v70,2013-01-12 09:03:00,
2013-01-12 01:08:00,40.0,34.3,30.17,ENE,67,0.0,4.0,80,0.00,,,0.00,Weather View 32 v70,2013-01-12 09:08:00,
2013-01-12 01:13:00,40.0,34.6,30.17,ENE,67,0.0,2.0,81,0.00,,,0.00,Weather View 32 v70,2013-01-12 09:13:00,
2013-01-12 01:18:00,41.0,35.6,30.17,NE,45,0.0,3.0,81,0.00,,,0.00,Weather View 32 v70,2013-01-12 09:18:00,
2013-01-12 01:23:00,41.0,35.3,30.17,NE,45,2.0,4.0,80,0.00,,,0.00,Weather View 32 v70,2013-01-12 09:23:00,
2013-01-12 01:28:00,41.0,35.3,30.17,NNE,22,0.0,6.0,80,0.00,,,0.00,Weather View 32 v70,2013-01-12 09:28:00,
2013-01-12 01:33:00,41.0,36.5,30.17,NNE,22,0.0,6.0,84,0.00,,,0.00,Weather View 32 v70,2013-01-12 09:33:00,
2013-01-12 01:38:00,41.0,35.3,30.17,ENE,67,1.0,6.0,80,0.00,,,0.00,Weather View 32 v70,2013-01-12 09:38:00,
2013-01-12 01:42:00,41.0,35.3,30.17,ENE,67,1.0,6.0,80,0.00,,,0.00,Weather View 32 v70,2013-01-12 09:42:00,
2013-01-12 01:43:00,41.0,35.3,30.17,NNE,22,0.0,6.0,80,0.00,,,0.00,Weather View 32 v70,2013-01-12 09:43:00,
2013-01-12 01:48:00,41.0,35.3,30.17,NE,45,3.0,7.0,80,0.00,,,0.00,Weather View 32 v70,2013-01-12 09:48:00,
2013-01-12 01:53:00,41.0,35.3,30.17,NNE,22,0.0,7.0,80,0.00,,,0.00,Weather View 32 v70,2013-01-12 09:53:00,
2013-01-12 01:58:00,41.0,35.3,30.17,NNE,22,0.0,7.0,80,0.00,,,0.00,Weather View 32 v70,2013-01-12 09:58:00,
2013-01-12 02:03:00,41.0,35.3,30.17,NW,315,1.0,7.0,80,0.00,,,0.00,Weather View 32 v70,2013-01-12 10:03:00,
2013-01-12 02:08:00,42.0,37.2,30.17,WSW,247,0.0,7.0,83,0.00,,,0.00,Weather View 32 v70,2013-01-12 10:08:00,
2013-01-12 02:13:00,41.0,35.3,30.17,NW,315,0.0,7.0,80,0.00,,,0.00,Weather View 32 v70,2013-01-12 10:13:00,
2013-01-12 02:18:00,41.0,35.0,30.18,NNE,22,0.0,7.0,79,0.00,,,0.00,Weather View 32 v70,2013-01-12 10:18:00,
2013-01-12 02:23:00,41.0,35.3,30.18,ENE,67,0.0,7.0,80,0.00,,,0.00,Weather View 32 v70,2013-01-12 10:23:00,
2013-01-12 02:28:00,41.0,35.3,30.18,ENE,67,0.0,7.0,80,0.00,,,0.00,Weather View 32 v70,2013-01-12 10:28:00,
2013-01-12 02:33:00,41.0,35.0,30.18,NNE,22,0.0,7.0,79,0.00,,,0.00,Weather View 32 v70,2013-01-12 10:33:00,
2013-01-12 02:38:00,40.0,34.0,30.18,NNE,22,0.0,7.0,79,0.00,,,0.00,Weather View 32 v70,2013-01-12 10:38:00,
2013-01-12 02:43:00,40.0,35.2,30.19,NNE,22,0.0,7.0,83,0.00,,,0.00,Weather View 32 v70,2013-01-12 10:43:00,
2013-01-12 02:48:00,40.0,34.6,30.19,NNE,22,0.0,7.0,81,0.00,,,0.00,Weather View 32 v70,2013-01-12 10:48:00,
2013-01-12 02:53:00,40.0,34.6,30.19,WNW,292,0.0,6.0,81,0.00,,,0.00,Weather View 32 v70,2013-01-12 10:53:00,
2013-01-12 02:58:00,40.0,34.6,30.19,NW,315,0.0,6.0,81,0.00,,,0.00,Weather View 32 v70,2013-01-12 10:58:00,
2013-01-12 03:08:00,40.0,34.6,30.19,NNE,22,0.0,6.0,81,0.00,,,0.00,Weather View 32 v70,2013-01-12 11:08:00,
2013-01-12 03:13:00,40.0,34.6,30.19,NNE,22,0.0,6.0,81,0.00,,,0.00,Weather View 32 v70,2013-01-12 11:13:00,
2013-01-12 03:18:00,40.0,35.6,30.19,NW,315,0.0,6.0,84,0.00,,,0.00,Weather View 32 v70,2013-01-12 11:18:00,
2013-01-12 03:23:00,40.0,34.6,30.19,WNW,292,0.0,6.0,81,0.00,,,0.00,Weather View 32 v70,2013-01-12 11:23:00,
2013-01-12 03:28:00,40.0,34.6,30.19,WNW,292,0.0,3.0,81,0.00,,,0.00,Weather View 32 v70,2013-01-12 11:28:00,
2013-01-12 03:38:00,39.0,33.7,30.19,WNW,292,0.0,3.0,81,0.00,,,0.00,Weather View 32 v70,2013-01-12 11:38:00,
2013-01-12 03:48:00,39.0,33.7,30.19,West,270,0.0,3.0,81,0.00,,,0.00,Weather View 32 v70,2013-01-12 11:48:00,
2013-01-12 03:53:00,39.0,33.7,30.19,West,270,0.0,2.0,81,0.00,,,0.00,Weather View 32 v70,2013-01-12 11:53:00,
2013-01-12 03:58:00,40.0,34.6,30.19,WSW,247,0.0,2.0,81,0.00,,,0.00,Weather View 32 v70,2013-01-12 11:58:00,
2013-01-12 04:03:00,40.0,34.6,30.19,NNE,22,0.0,2.0,81,0.00,,,0.00,Weather View 32 v70,2013-01-12 12:03:00,
2013-01-12 04:08:00,39.0,34.6,30.19,NE,45,0.0,2.0,84,0.00,,,0.00,Weather View 32 v70,2013-01-12 12:08:00,
2013-01-12 04:13:00,39.0,33.7,30.19,NE,45,0.0,2.0,81,0.00,,,0.00,Weather View 32 v70,2013-01-12 12:13:00,
2013-01-12 04:18:00,39.0,33.7,30.19,WNW,292,0.0,3.0,81,0.00,,,0.00,Weather View 32 v70,2013-01-12 12:18:00,
2013-01-12 04:23:00,39.0,33.7,30.19,NW,315,0.0,3.0,81,0.00,,,0.00,Weather View 32 v70,2013-01-12 12:23:00,
2013-01-12 04:28:00,39.0,33.7,30.19,NW,315,0.0,3.0,81,0.00,,,0.00,Weather View 32 v70,2013-01-12 12:28:00,
2013-01-12 04:33:00,39.0,33.7,30.19,NE,45,0.0,3.0,81,0.00,,,0.00,Weather View 32 v70,2013-01-12 12:33:00,
2013-01-12 04:38:00,38.0,32.7,30.19,NE,45,0.0,3.0,81,0.00,,,0.00,Weather View 32 v70,2013-01-12 12:38:00,
2013-01-12 04:43:00,38.0,33.9,30.19,SE,135,0.0,3.0,85,0.00,,,0.00,Weather View 32 v70,2013-01-12 12:43:00,
2013-01-12 04:48:00,38.0,33.0,30.19,SW,225,0.0,3.0,82,0.00,,,0.00,Weather View 32 v70,2013-01-12 12:48:00,
2013-01-12 04:53:00,38.0,33.0,30.19,SW,225,0.0,3.0,82,0.00,,,0.00,Weather View 32 v70,2013-01-12 12:53:00,
2013-01-12 04:58:00,38.0,33.0,30.19,ENE,67,0.0,3.0,82,0.00,,,0.00,Weather View 32 v70,2013-01-12 12:58:00,
2013-01-12 05:03:00,38.0,33.0,30.19,SE,135,0.0,3.0,82,0.00,,,0.00,Weather View 32 v70,2013-01-12 13:03:00,
2013-01-12 05:08:00,38.0,33.0,30.19,SW,225,0.0,3.0,82,0.00,,,0.00,Weather View 32 v70,2013-01-12 13:08:00,
2013-01-12 05:13:00,38.0,33.0,30.19,SW,225,0.0,3.0,82,0.00,,,0.00,Weather View 32 v70,2013-01-12 13:13:00,
2013-01-12 05:18:00,38.0,33.6,30.19,SW,225,0.0,3.0,84,0.00,,,0.00,Weather View 32 v70,2013-01-12 13:18:00,
2013-01-12 05:23:00,38.0,33.0,30.19,SW,225,0.0,2.0,82,0.00,,,0.00,Weather View 32 v70,2013-01-12 13:23:00,
2013-01-12 05:28:00,39.0,33.7,30.19,SW,225,0.0,2.0,81,0.00,,,0.00,Weather View 32 v70,2013-01-12 13:28:00,
2013-01-12 05:33:00,39.0,33.7,30.19,SW,225,0.0,2.0,81,0.00,,,0.00,Weather View 32 v70,2013-01-12 13:33:00,
2013-01-12 05:38:00,39.0,33.7,30.19,SW,225,0.0,2.0,81,0.00,,,0.00,Weather View 32 v70,2013-01-12 13:38:00,
2013-01-12 05:43:00,39.0,33.7,30.19,WSW,247,0.0,2.0,81,0.00,,,0.00,Weather View 32 v70,2013-01-12 13:43:00,
2013-01-12 05:53:00,39.0,34.3,30.20,WSW,247,0.0,2.0,83,0.00,,,0.00,Weather View 32 v70,2013-01-12 13:53:00,
2013-01-12 05:58:00,38.0,32.7,30.20,WSW,247,0.0,2.0,81,0.00,,,0.00,Weather View 32 v70,2013-01-12 13:58:00,
2013-01-12 06:03:00,37.0,32.0,30.20,WSW,247,0.0,2.0,82,0.00,,,0.00,Weather View 32 v70,2013-01-12 14:03:00,
2013-01-12 06:08:00,37.0,32.0,30.21,WSW,247,0.0,0.0,82,0.00,,,0.00,Weather View 32 v70,2013-01-12 14:08:00,
2013-01-12 06:13:00,38.0,33.0,30.21,WSW,247,0.0,0.0,82,0.00,,,0.00,Weather View 32 v70,2013-01-12 14:13:00,
2013-01-12 06:18:00,39.0,34.0,30.21,WSW,247,0.0,0.0,82,0.00,,,0.00,Weather View 32 v70,2013-01-12 14:18:00,
2013-01-12 06:23:00,39.0,33.7,30.21,WSW,247,0.0,0.0,81,0.00,,,0.00,Weather View 32 v70,2013-01-12 14:23:00,
2013-01-12 06:28:00,40.0,35.2,30.21,WSW,247,0.0,0.0,83,0.00,,,0.00,Weather View 32 v70,2013-01-12 14:28:00,
2013-01-12 06:33:00,40.0,34.6,30.21,West,270,0.0,0.0,81,0.00,,,0.00,Weather View 32 v70,2013-01-12 14:33:00,
2013-01-12 06:38:00,40.0,34.6,30.21,West,270,0.0,0.0,81,0.00,,,0.00,Weather View 32 v70,2013-01-12 14:38:00,
2013-01-12 06:43:00,40.0,34.6,30.21,West,270,0.0,0.0,81,0.00,,,0.00,Weather View 32 v70,2013-01-12 14:43:00,
2013-01-12 06:44:00,40.0,34.6,30.21,West,270,0.0,0.0,81,0.00,,,0.00,Weather View 32 v70,2013-01-12 14:44:00,
2013-01-12 06:48:00,40.0,34.3,30.21,West,270,0.0,0.0,80,0.00,,,0.00,Weather View 32 v70,2013-01-12 14:48:00,
2013-01-12 06:53:00,40.0,34.3,30.21,West,270,0.0,0.0,80,0.00,,,0.00,Weather View 32 v70,2013-01-12 14:53:00,
2013-01-12 06:58:00,39.0,32.7,30.21,West,270,0.0,0.0,78,0.00,,,0.00,Weather View 32 v70,2013-01-12 14:58:00,
2013-01-12 07:08:00,37.0,26.3,30.21,West,270,0.0,0.0,65,0.00,,,0.00,Weather View 32 v70,2013-01-12 15:08:00,
2013-01-12 07:13:00,37.0,26.3,30.22,West,270,0.0,0.0,65,0.00,,,0.00,Weather View 32 v70,2013-01-12 15:13:00,
2013-01-12 07:18:00,37.0,26.3,30.23,West,270,0.0,0.0,65,0.00,,,0.00,Weather View 32 v70,2013-01-12 15:18:00,
2013-01-12 07:23:00,37.0,25.9,30.23,West,270,0.0,0.0,64,0.00,,,0.00,Weather View 32 v70,2013-01-12 15:23:00,
2013-01-12 07:28:00,37.0,25.9,30.23,West,270,0.0,0.0,64,0.00,,,0.00,Weather View 32 v70,2013-01-12 15:28:00,
2013-01-12 07:33:00,36.0,24.2,30.23,West,270,0.0,0.0,62,0.00,,,0.00,Weather View 32 v70,2013-01-12 15:33:00,
2013-01-12 07:38:00,37.0,-55.2,30.23,West,270,0.0,0.0,1,0.00,,,0.00,Weather View 32 v70,2013-01-12 15:38:00,
2013-01-12 07:43:00,37.0,23.6,30.23,West,270,0.0,0.0,58,0.00,,,0.00,Weather View 32 v70,2013-01-12 15:43:00,
2013-01-12 07:45:00,37.0,23.6,30.23,West,270,0.0,0.0,58,0.00,,,0.00,Weather View 32 v70,2013-01-12 15:45:00,
2013-01-12 07:48:00,38.0,24.5,30.23,West,270,0.0,0.0,58,0.00,,,0.00,Weather View 32 v70,2013-01-12 15:48:00,
2013-01-12 07:54:00,38.0,23.7,30.22,West,270,0.0,0.0,56,0.00,,,0.00,Weather View 32 v70,2013-01-12 15:54:00,
2013-01-12 07:59:00,39.0,-54.0,30.22,West,270,0.0,0.0,1,0.00,,,0.00,Weather View 32 v70,2013-01-12 15:59:00,
2013-01-12 08:04:00,40.0,25.1,30.22,West,270,0.0,0.0,55,0.00,,,0.00,Weather View 32 v70,2013-01-12 16:04:00,
2013-01-12 08:09:00,40.0,24.7,30.22,West,270,0.0,0.0,54,0.00,,,0.00,Weather View 32 v70,2013-01-12 16:09:00,
2013-01-12 08:14:00,41.0,25.6,30.21,SE,135,0.0,0.0,54,0.00,,,0.00,Weather View 32 v70,2013-01-12 16:14:00,
2013-01-12 08:19:00,42.0,26.1,30.21,SE,135,0.0,0.0,53,0.00,,,0.00,Weather View 32 v70,2013-01-12 16:19:00,
2013-01-12 08:24:00,43.0,27.0,30.21,SE,135,0.0,0.0,53,0.00,,,0.00,Weather View 32 v70,2013-01-12 16:24:00,
2013-01-12 08:28:00,43.0,27.0,30.21,SE,135,0.0,0.0,53,0.00,,,0.00,Weather View 32 v70,2013-01-12 16:28:00,
2013-01-12 08:33:00,44.0,-50.9,30.21,ENE,67,0.0,2.0,1,0.00,,,0.00,Weather View 32 v70,2013-01-12 16:33:00,
2013-01-12 08:38:00,44.0,27.0,30.21,ENE,67,0.0,3.0,51,0.00,,,0.00,Weather View 32 v70,2013-01-12 16:38:00,
2013-01-12 08:43:00,44.0,27.0,30.21,ENE,67,0.0,3.0,51,0.00,,,0.00,Weather View 32 v70,2013-01-12 16:43:00,
2013-01-12 08:46:00,44.0,27.0,30.21,ENE,67,0.0,3.0,51,0.00,,,0.00,Weather View 32 v70,2013-01-12 16:46:00,
2013-01-12 08:53:00,45.0,27.5,30.21,ENE,67,0.0,4.0,50,0.00,,,0.00,Weather View 32 v70,2013-01-12 16:53:00,
2013-01-12 08:58:00,45.0,27.0,30.21,East,90,0.0,5.0,49,0.00,,,0.00,Weather View 32 v70,2013-01-12 16:58:00,
2013-01-12 09:03:00,46.0,27.9,30.21,NE,45,0.0,5.0,49,0.00,,,0.00,Weather View 32 v70,2013-01-12 17:03:00,
2013-01-12 09:08:00,46.0,-49.6,30.21,East,90,1.0,6.0,1,0.00,,,0.00,Weather View 32 v70,2013-01-12 17:08:00,
2013-01-12 09:13:00,46.0,27.9,30.21,NE,45,0.0,6.0,49,0.00,,,0.00,Weather View 32 v70,2013-01-12 17:13:00,
2013-01-12 09:18:00,46.0,27.9,30.21,SE,135,0.0,6.0,49,0.00,,,0.00,Weather View 32 v70,2013-01-12 17:18:00,
2013-01-12 09:23:00,46.0,27.9,30.21,SE,135,0.0,6.0,49,0.00,,,0.00,Weather View 32 v70,2013-01-12 17:23:00,
2013-01-12 09:28:00,47.0,28.8,30.21,East,90,0.0,6.0,49,0.00,,,0.00,Weather View 32 v70,2013-01-12 17:28:00,
2013-01-12 09:33:00,47.0,28.8,30.21,SE,135,2.0,6.0,49,0.00,,,0.00,Weather View 32 v70,2013-01-12 17:33:00,
2013-01-12 09:38:00,47.0,28.8,30.20,East,90,3.0,6.0,49,0.00,,,0.00,Weather View 32 v70,2013-01-12 17:38:00,
2013-01-12 09:43:00,47.0,-49.0,30.21,ESE,112,2.0,6.0,1,0.00,,,0.00,Weather View 32 v70,2013-01-12 17:43:00,
2013-01-12 09:47:00,47.0,-49.0,30.21,ESE,112,2.0,6.0,1,0.00,,,0.00,Weather View 32 v70,2013-01-12 17:47:00,
2013-01-12 09:48:00,48.0,29.7,30.21,SE,135,0.0,6.0,49,0.00,,,0.00,Weather View 32 v70,2013-01-12 17:48:00,
2013-01-12 09:53:00,48.0,29.7,30.20,East,90,3.0,6.0,49,0.00,,,0.00,Weather View 32 v70,2013-01-12 17:53:00,
2013-01-12 09:58:00,47.0,28.8,30.20,ESE,112,0.0,9.0,49,0.00,,,0.00,Weather View 32 v70,2013-01-12 17:58:00,
2013-01-12 10:08:00,48.0,29.7,30.20,ESE,112,1.0,9.0,49,0.00,,,0.00,Weather View 32 v70,2013-01-12 18:08:00,
2013-01-12 10:13:00,48.0,29.7,30.20,SE,135,0.0,9.0,49,0.00,,,0.00,Weather View 32 v70,2013-01-12 18:13:00,
2013-01-12 10:18:00,48.0,-48.4,30.20,SE,135,0.0,9.0,1,0.00,,,0.00,Weather View 32 v70,2013-01-12 18:18:00,
2013-01-12 10:23:00,49.0,30.6,30.20,SW,225,0.0,9.0,49,0.00,,,0.00,Weather View 32 v70,2013-01-12 18:23:00,
2013-01-12 10:28:00,49.0,30.1,30.20,ESE,112,0.0,9.0,48,0.00,,,0.00,Weather View 32 v70,2013-01-12 18:28:00,
2013-01-12 10:33:00,49.0,30.1,30.20,ESE,112,7.0,9.0,48,0.00,,,0.00,Weather View 32 v70,2013-01-12 18:33:00,
2013-01-12 10:38:00,48.0,29.2,30.20,ESE,112,4.0,9.0,48,0.00,,,0.00,Weather View 32 v70,2013-01-12 18:38:00,
2013-01-12 10:43:00,48.0,29.2,30.20,SE,135,2.0,9.0,48,0.00,,,0.00,Weather View 32 v70,2013-01-12 18:43:00,
2013-01-12 10:47:00,48.0,29.2,30.20,SE,135,2.0,9.0,48,0.00,,,0.00,Weather View 32 v70,2013-01-12 18:47:00,
2013-01-12 10:48:00,48.0,29.2,30.20,ESE,112,2.0,9.0,48,0.00,,,0.00,Weather View 32 v70,2013-01-12 18:48:00,
2013-01-12 10:53:00,49.0,-47.8,30.19,SE,135,0.0,9.0,1,0.00,,,0.00,Weather View 32 v70,2013-01-12 18:53:00,
2013-01-12 10:58:00,49.0,30.1,30.19,SE,135,0.0,9.0,48,0.00,,,0.00,Weather View 32 v70,2013-01-12 18:58:00,
2013-01-12 11:03:00,50.0,31.0,30.18,SE,135,4.0,8.0,48,0.00,,,0.00,Weather View 32 v70,2013-01-12 19:03:00,
2013-01-12 11:08:00,50.0,30.5,30.18,SE,135,0.0,8.0,47,0.00,,,0.00,Weather View 32 v70,2013-01-12 19:08:00,
2013-01-12 11:13:00,50.0,30.5,30.18,ESE,112,3.0,8.0,47,0.00,,,0.00,Weather View 32 v70,2013-01-12 19:13:00,
2013-01-12 11:18:00,50.0,30.5,30.18,SW,225,0.0,8.0,47,0.00,,,0.00,Weather View 32 v70,2013-01-12 19:18:00,
2013-01-12 11:23:00,50.0,30.5,30.18,SE,135,5.0,8.0,47,0.00,,,0.00,Weather View 32 v70,2013-01-12 19:23:00,
2013-01-12 11:28:00,50.0,-47.2,30.17,SE,135,3.0,8.0,1,0.00,,,0.00,Weather View 32 v70,2013-01-12 19:28:00,
2013-01-12 11:38:00,50.0,30.0,30.17,SE,135,0.0,8.0,46,0.00,,,0.00,Weather View 32 v70,2013-01-12 19:38:00,
2013-01-12 11:43:00,49.0,29.1,30.16,SW,225,0.0,9.0,46,0.00,,,0.00,Weather View 32 v70,2013-01-12 19:43:00,
2013-01-12 11:47:00,49.0,29.1,30.16,SW,225,0.0,9.0,46,0.00,,,0.00,Weather View 32 v70,2013-01-12 19:47:00,
2013-01-12 11:48:00,50.0,30.5,30.16,SE,135,9.0,9.0,47,0.00,,,0.00,Weather View 32 v70,2013-01-12 19:48:00,
2013-01-12 11:53:00,50.0,30.0,30.16,ESE,112,6.0,9.0,46,0.00,,,0.00,Weather View 32 v70,2013-01-12 19:53:00,
2013-01-12 11:58:00,50.0,30.0,30.16,SE,135,5.0,9.0,46,0.00,,,0.00,Weather View 32 v70,2013-01-12 19:58:00,
2013-01-12 12:03:00,50.0,-47.2,30.15,SE,135,0.0,9.0,1,0.00,,,0.00,Weather View 32 v70,2013-01-12 20:03:00,
2013-01-12 12:08:00,50.0,29.5,30.15,SW,225,3.0,9.0,45,0.00,,,0.00,Weather View 32 v70,2013-01-12 20:08:00,
2013-01-12 12:13:00,50.0,29.5,30.15,SE,135,0.0,9.0,45,0.00,,,0.00,Weather View 32 v70,2013-01-12 20:13:00,
2013-01-12 12:18:00,51.0,-46.6,30.15,SE,135,4.0,9.0,1,0.00,,,0.00,Weather View 32 v70,2013-01-12 20:18:00,
2013-01-12 12:23:00,51.0,30.4,30.15,SE,135,6.0,9.0,45,0.00,,,0.00,Weather View 32 v70,2013-01-12 20:23:00,
2013-01-12 12:28:00,51.0,29.8,30.15,SE,135,3.0,9.0,44,0.00,,,0.00,Weather View 32 v70,2013-01-12 20:28:00,
2013-01-12 12:33:00,51.0,29.8,30.14,ESE,112,1.0,9.0,44,0.00,,,0.00,Weather View 32 v70,2013-01-12 20:33:00,
2013-01-12 12:38:00,51.0,29.8,30.14,ESE,112,0.0,9.0,44,0.00,,,0.00,Weather View 32 v70,2013-01-12 20:38:00,
2013-01-12 12:43:00,51.0,29.2,30.14,SW,225,1.0,9.0,43,0.00,,,0.00,Weather View 32 v70,2013-01-12 20:43:00,
2013-01-12 12:48:00,51.0,29.2,30.14,ESE,112,0.0,9.0,43,0.00,,,0.00,Weather View 32 v70,2013-01-12 20:48:00,
2013-01-12 12:53:00,51.0,-46.6,30.13,ESE,112,2.0,9.0,1,0.00,,,0.00,Weather View 32 v70,2013-01-12 20:53:00,
2013-01-12 12:58:00,51.0,29.8,30.13,SW,225,0.0,9.0,44,0.00,,,0.00,Weather View 32 v70,2013-01-12 20:58:00,
2013-01-12 13:03:00,52.0,30.7,30.13,SE,135,1.0,9.0,44,0.00,,,0.00,Weather View 32 v70,2013-01-12 21:03:00,
2013-01-12 13:08:00,53.0,31.1,30.12,SE,135,2.0,9.0,43,0.00,,,0.00,Weather View 32 v70,2013-01-12 21:08:00,
2013-01-12 13:13:00,53.0,31.1,30.12,SE,135,0.0,9.0,43,0.00,,,0.00,Weather View 32 v70,2013-01-12 21:13:00,
2013-01-12 13:18:00,54.0,32.0,30.12,SE,135,0.0,9.0,43,0.00,,,0.00,Weather View 32 v70,2013-01-12 21:18:00,
2013-01-12 13:23:00,54.0,31.4,30.11,SE,135,3.0,9.0,42,0.00,,,0.00,Weather View 32 v70,2013-01-12 21:23:00,
2013-01-12 13:28:00,54.0,-44.7,30.12,ESE,112,0.0,9.0,1,0.00,,,0.00,Weather View 32 v70,2013-01-12 21:28:00,
2013-01-12 13:33:00,54.0,31.4,30.12,SE,135,1.0,9.0,42,0.00,,,0.00,Weather View 32 v70,2013-01-12 21:33:00,
2013-01-12 13:38:00,53.0,30.5,30.11,ESE,112,2.0,9.0,42,0.00,,,0.00,Weather View 32 v70,2013-01-12 21:38:00,
2013-01-12 13:43:00,53.0,30.5,30.12,East,90,0.0,9.0,42,0.00,,,0.00,Weather View 32 v70,2013-01-12 21:43:00,
2013-01-12 13:48:00,53.0,30.5,30.12,SE,135,0.0,7.0,42,0.00,,,0.00,Weather View 32 v70,2013-01-12 21:48:00,
2013-01-12 13:49:00,54.0,-44.7,30.12,SE,135,3.0,7.0,1,0.00,,,0.00,Weather View 32 v70,2013-01-12 21:49:00,
2013-01-12 13:54:00,52.0,29.0,30.12,SE,135,0.0,7.0,41,0.00,,,0.00,Weather View 32 v70,2013-01-12 21:54:00,
2013-01-12 14:03:00,53.0,29.9,30.12,ESE,112,2.0,7.0,41,0.00,,,0.00,Weather View 32 v70,2013-01-12 22:03:00,
2013-01-12 14:08:00,53.0,29.9,30.12,ESE,112,1.0,7.0,41,0.00,,,0.00,Weather View 32 v70,2013-01-12 22:08:00,
2013-01-12 14:13:00,53.0,29.9,30.12,SE,135,0.0,7.0,41,0.00,,,0.00,Weather View 32 v70,2013-01-12 22:13:00,
2013-01-12 14:18:00,53.0,29.9,30.12,East,90,0.0,7.0,41,0.00,,,0.00,Weather View 32 v70,2013-01-12 22:18:00,
2013-01-12 14:23:00,54.0,-44.7,30.11,East,90,0.0,7.0,1,0.00,,,0.00,Weather View 32 v70,2013-01-12 22:23:00,
2013-01-12 14:25:00,54.0,-44.7,30.11,East,90,0.0,7.0,1,0.00,,,0.00,Weather View 32 v70,2013-01-12 22:25:00,
2013-01-12 17:48:00,44.0,34.5,30.15,WSW,247,0.0,0.0,69,0.00,,,0.00,Weather View 32 v70,2013-01-13 01:48:00,
2013-01-12 17:53:00,45.0,35.4,30.14,WSW,247,0.0,2.0,69,0.00,,,0.00,Weather View 32 v70,2013-01-13 01:53:00,
2013-01-12 17:58:00,45.0,36.2,30.14,ENE,67,0.0,2.0,71,0.00,,,0.00,Weather View 32 v70,2013-01-13 01:58:00,
2013-01-12 18:03:00,45.0,36.5,30.14,West,270,0.0,2.0,72,0.00,,,0.00,Weather View 32 v70,2013-01-13 02:03:00,
2013-01-12 18:08:00,45.0,36.9,30.14,West,270,0.0,2.0,73,0.00,,,0.00,Weather View 32 v70,2013-01-13 02:08:00,
2013-01-12 18:13:00,45.0,37.2,30.14,WSW,247,0.0,2.0,74,0.00,,,0.00,Weather View 32 v70,2013-01-13 02:13:00,
2013-01-12 18:18:00,45.0,37.5,30.14,WSW,247,0.0,2.0,75,0.00,,,0.00,Weather View 32 v70,2013-01-13 02:18:00,
2013-01-12 18:23:00,45.0,37.9,30.14,SW,225,0.0,2.0,76,0.00,,,0.00,Weather View 32 v70,2013-01-13 02:23:00,
2013-01-12 18:28:00,45.0,37.9,30.14,WSW,247,0.0,2.0,76,0.00,,,0.00,Weather View 32 v70,2013-01-13 02:28:00,
2013-01-12 18:33:00,45.0,38.2,30.14,WSW,247,0.0,2.0,77,0.00,,,0.00,Weather View 32 v70,2013-01-13 02:33:00,
2013-01-12 18:38:00,45.0,38.5,30.14,WSW,247,0.0,2.0,78,0.00,,,0.00,Weather View 32 v70,2013-01-13 02:38:00,
2013-01-12 18:43:00,45.0,38.9,30.14,WNW,292,0.0,2.0,79,0.00,,,0.00,Weather View 32 v70,2013-01-13 02:43:00,
2013-01-12 18:47:00,45.0,38.9,30.14,WNW,292,0.0,2.0,79,0.00,,,0.00,Weather View 32 v70,2013-01-13 02:47:00,
2013-01-12 18:48:00,45.0,38.9,30.14,WSW,247,0.0,2.0,79,0.00,,,0.00,Weather View 32 v70,2013-01-13 02:48:00,
2013-01-12 18:53:00,45.0,38.9,30.14,WSW,247,0.0,2.0,79,0.00,,,0.00,Weather View 32 v70,2013-01-13 02:53:00,
2013-01-12 18:58:00,45.0,38.9,30.13,SW,225,0.0,2.0,79,0.00,,,0.00,Weather View 32 v70,2013-01-13 02:58:00,
2013-01-12 19:03:00,45.0,38.5,30.13,SW,225,0.0,2.0,78,0.00,,,0.00,Weather View 32 v70,2013-01-13 03:03:00,
2013-01-12 19:08:00,45.0,38.9,30.13,SW,225,1.0,2.0,79,0.00,,,0.00,Weather View 32 v70,2013-01-13 03:08:00,
2013-01-12 19:18:00,45.0,38.9,30.13,WSW,247,0.0,3.0,79,0.00,,,0.00,Weather View 32 v70,2013-01-13 03:18:00,
2013-01-12 19:23:00,45.0,38.9,30.13,WSW,247,0.0,3.0,79,0.00,,,0.00,Weather View 32 v70,2013-01-13 03:23:00,
2013-01-12 19:28:00,45.0,38.9,30.13,WSW,247,0.0,3.0,79,0.00,,,0.00,Weather View 32 v70,2013-01-13 03:28:00,
2013-01-12 19:33:00,45.0,38.9,30.13,WSW,247,0.0,3.0,79,0.00,,,0.00,Weather View 32 v70,2013-01-13 03:33:00,
2013-01-12 19:38:00,45.0,38.5,30.14,WSW,247,0.0,3.0,78,0.00,,,0.00,Weather View 32 v70,2013-01-13 03:38:00,
2013-01-12 19:43:00,45.0,38.9,30.14,WSW,247,0.0,3.0,79,0.00,,,0.00,Weather View 32 v70,2013-01-13 03:43:00,
2013-01-12 19:53:00,45.0,38.9,30.14,NNE,22,0.0,3.0,79,0.00,,,0.00,Weather View 32 v70,2013-01-13 03:53:00,
2013-01-12 19:58:00,45.0,38.9,30.14,NNE,22,0.0,3.0,79,0.00,,,0.00,Weather View 32 v70,2013-01-13 03:58:00,
2013-01-12 20:03:00,45.0,38.9,30.14,NNE,22,0.0,3.0,79,0.00,,,0.00,Weather View 32 v70,2013-01-13 04:03:00,
2013-01-12 20:08:00,45.0,38.9,30.14,WNW,292,0.0,3.0,79,0.00,,,0.00,Weather View 32 v70,2013-01-13 04:08:00,
2013-01-12 20:13:00,45.0,38.5,30.14,WNW,292,0.0,1.0,78,0.00,,,0.00,Weather View 32 v70,2013-01-13 04:13:00,
2013-01-12 20:18:00,45.0,38.9,30.14,WNW,292,0.0,0.0,79,0.00,,,0.00,Weather View 32 v70,2013-01-13 04:18:00,
2013-01-12 20:23:00,45.0,38.9,30.14,WNW,292,0.0,0.0,79,0.00,,,0.00,Weather View 32 v70,2013-01-13 04:23:00,
2013-01-12 20:28:00,44.0,37.9,30.15,WNW,292,0.0,0.0,79,0.00,,,0.00,Weather View 32 v70,2013-01-13 04:28:00,
2013-01-12 20:33:00,43.0,36.9,30.15,WNW,292,0.0,0.0,79,0.00,,,0.00,Weather View 32 v70,2013-01-13 04:33:00,
2013-01-12 20:38:00,43.0,36.9,30.14,WNW,292,0.0,0.0,79,0.00,,,0.00,Weather View 32 v70,2013-01-13 04:38:00,
2013-01-12 20:43:00,43.0,37.2,30.15,WNW,292,0.0,0.0,80,0.00,,,0.00,Weather View 32 v70,2013-01-13 04:43:00,
2013-01-12 20:48:00,43.0,37.2,30.15,WNW,292,0.0,0.0,80,0.00,,,0.00,Weather View 32 v70,2013-01-13 04:48:00,
2013-01-12 20:53:00,43.0,37.2,30.14,WNW,292,0.0,0.0,80,0.00,,,0.00,Weather View 32 v70,2013-01-13 04:53:00,
2013-01-12 20:58:00,43.0,37.2,30.14,WNW,292,0.0,0.0,80,0.00,,,0.00,Weather View 32 v70,2013-01-13 04:58:00,
2013-01-12 21:03:00,42.0,36.3,30.14,WNW,292,0.0,0.0,80,0.00,,,0.00,Weather View 32 v70,2013-01-13 05:03:00,
2013-01-12 21:08:00,41.0,35.3,30.14,WNW,292,0.0,0.0,80,0.00,,,0.00,Weather View 32 v70,2013-01-13 05:08:00,
2013-01-12 21:13:00,40.0,34.6,30.15,WNW,292,0.0,0.0,81,0.00,,,0.00,Weather View 32 v70,2013-01-13 05:13:00,
2013-01-12 21:18:00,39.0,33.7,30.16,WNW,292,0.0,0.0,81,0.00,,,0.00,Weather View 32 v70,2013-01-13 05:18:00,
2013-01-12 21:23:00,39.0,33.7,30.17,WNW,292,0.0,0.0,81,0.00,,,0.00,Weather View 32 v70,2013-01-13 05:23:00,
2013-01-12 21:28:00,39.0,34.0,30.17,WNW,292,0.0,0.0,82,0.00,,,0.00,Weather View 32 v70,2013-01-13 05:28:00,
2013-01-12 21:38:00,38.0,33.0,30.17,WNW,292,0.0,0.0,82,0.00,,,0.00,Weather View 32 v70,2013-01-13 05:38:00,
2013-01-12 21:43:00,38.0,33.0,30.17,WNW,292,0.0,0.0,82,0.00,,,0.00,Weather View 32 v70,2013-01-13 05:43:00,
2013-01-12 21:48:00,38.0,33.0,30.17,WNW,292,0.0,0.0,82,0.00,,,0.00,Weather View 32 v70,2013-01-13 05:48:00,
2013-01-12 21:53:00,39.0,34.0,30.17,WNW,292,0.0,0.0,82,0.00,,,0.00,Weather View 32 v70,2013-01-13 05:53:00,
2013-01-12 21:58:00,39.0,34.0,30.16,WNW,292,0.0,0.0,82,0.00,,,0.00,Weather View 32 v70,2013-01-13 05:58:00,
2013-01-12 22:03:00,38.0,32.7,30.16,WNW,292,0.0,0.0,81,0.00,,,0.00,Weather View 32 v70,2013-01-13 06:03:00,
2013-01-12 22:08:00,39.0,33.7,30.17,WNW,292,0.0,0.0,81,0.00,,,0.00,Weather View 32 v70,2013-01-13 06:08:00,
2013-01-12 22:13:00,39.0,34.0,30.17,WNW,292,0.0,0.0,82,0.00,,,0.00,Weather View 32 v70,2013-01-13 06:13:00,
2013-01-12 22:18:00,40.0,34.6,30.17,WNW,292,0.0,0.0,81,0.00,,,0.00,Weather View 32 v70,2013-01-13 06:18:00,
2013-01-12 22:23:00,39.0,33.7,30.17,WNW,292,0.0,0.0,81,0.00,,,0.00,Weather View 32 v70,2013-01-13 06:23:00,
2013-01-12 22:28:00,39.0,34.0,30.17,WNW,292,0.0,0.0,82,0.00,,,0.00,Weather View 32 v70,2013-01-13 06:28:00,
2013-01-12 22:33:00,39.0,33.7,30.17,WNW,292,0.0,0.0,81,0.00,,,0.00,Weather View 32 v70,2013-01-13 06:33:00,
2013-01-12 22:38:00,39.0,33.7,30.17,WNW,292,0.0,0.0,81,0.00,,,0.00,Weather View 32 v70,2013-01-13 06:38:00,
2013-01-12 22:43:00,39.0,33.7,30.17,WNW,292,0.0,0.0,81,0.00,,,0.00,Weather View 32 v70,2013-01-13 06:43:00,
2013-01-12 22:49:00,40.0,34.6,30.17,WNW,292,0.0,0.0,81,0.00,,,0.00,Weather View 32 v70,2013-01-13 06:49:00,
2013-01-12 22:53:00,40.0,34.6,30.17,WNW,292,0.0,0.0,81,0.00,,,0.00,Weather View 32 v70,2013-01-13 06:53:00,
2013-01-12 22:58:00,40.0,34.6,30.17,WNW,292,1.0,1.0,81,0.00,,,0.00,Weather View 32 v70,2013-01-13 06:58:00,
2013-01-12 23:03:00,41.0,35.3,30.17,NW,315,0.0,1.0,80,0.00,,,0.00,Weather View 32 v70,2013-01-13 07:03:00,
2013-01-12 23:08:00,41.0,35.3,30.17,North,360,0.0,1.0,80,0.00,,,0.00,Weather View 32 v70,2013-01-13 07:08:00,
2013-01-12 23:13:00,41.0,35.3,30.17,NNW,337,0.0,1.0,80,0.00,,,0.00,Weather View 32 v70,2013-01-13 07:13:00,
2013-01-12 23:18:00,40.0,34.6,30.18,NW,315,0.0,1.0,81,0.00,,,0.00,Weather View 32 v70,2013-01-13 07:18:00,
2013-01-12 23:23:00,40.0,34.9,30.18,NNW,337,0.0,1.0,82,0.00,,,0.00,Weather View 32 v70,2013-01-13 07:23:00,
2013-01-12 23:28:00,40.0,34.6,30.18,NNW,337,0.0,1.0,81,0.00,,,0.00,Weather View 32 v70,2013-01-13 07:28:00,
2013-01-12 23:33:00,40.0,34.6,30.18,NW,315,0.0,1.0,81,0.00,,,0.00,Weather View 32 v70,2013-01-13 07:33:00,
2013-01-12 23:38:00,40.0,34.6,30.18,NW,315,0.0,1.0,81,0.00,,,0.00,Weather View 32 v70,2013-01-13 07:38:00,
2013-01-12 23:43:00,40.0,34.6,30.18,NW,315,0.0,1.0,81,0.00,,,0.00,Weather View 32 v70,2013-01-13 07:43:00,
2013-01-12 23:48:00,40.0,34.6,30.18,NW,315,0.0,1.0,81,0.00,,,0.00,Weather View 32 v70,2013-01-13 07:48:00,
2013-01-12 23:53:00,40.0,34.6,30.19,NW,315,0.0,1.0,81,0.00,,,0.00,Weather View 32 v70,2013-01-13 07:53:00,
2013-01-12 23:58:00,40.0,34.6,30.19,NW,315,0.0,1.0,81,0.00,,,0.00,Weather View 32 v70,2013-01-13 07:58:00,